This is the latest recevied weather packets stored in our database for station/object SP3TOM-10. If no packets are shown the sender has not sent any weather packets the latest 10 day(s).
| Time | Temp. | Humidity | Pressure | Rain* | Wind** | Luminosity | Snow |
|---|---|---|---|---|---|---|---|
| 1787570313 | 21.11° C | 58% | 1010.8 hPa | - | - | - | - |
| 1787569412 | 20° C | 59% | 1010.8 hPa | - | - | - | - |
| 1787568512 | 19.44° C | 61% | 1010.9 hPa | - | - | - | - |
| 1787567612 | 18.33° C | 62% | 1010.9 hPa | - | - | - | - |
| 1787566712 | 18.33° C | 62% | 1011 hPa | - | - | - | - |
| 1787565812 | 17.78° C | 63% | 1011 hPa | - | - | - | - |
| 1787564912 | 17.78° C | 63% | 1011 hPa | - | - | - | - |
| 1787564011 | 17.78° C | 63% | 1010.9 hPa | - | - | - | - |
| 1787563110 | 17.22° C | 63% | 1010.9 hPa | - | - | - | - |
| 1787562211 | 17.22° C | 63% | 1010.8 hPa | - | - | - | - |
| 1787561310 | 17.22° C | 63% | 1010.7 hPa | - | - | - | - |
| 1787560410 | 17.22° C | 63% | 1010.7 hPa | - | - | - | - |
| 1787559510 | 17.22° C | 62% | 1010.5 hPa | - | - | - | - |
| 1787558609 | 17.22° C | 63% | 1010.4 hPa | - | - | - | - |
| 1787557709 | 17.22° C | 62% | 1010.4 hPa | - | - | - | - |
| 1787556809 | 17.22° C | 63% | 1010.3 hPa | - | - | - | - |
| 1787555909 | 16.67° C | 63% | 1010.2 hPa | - | - | - | - |
| 1787555009 | 16.67° C | 62% | 1010 hPa | - | - | - | - |
| 1787554108 | 16.67° C | 63% | 1010 hPa | - | - | - | - |
| 1787553208 | 16.67° C | 62% | 1010 hPa | - | - | - | - |
| 1787552308 | 16.67° C | 62% | 1009.9 hPa | - | - | - | - |
| 1787551408 | 16.11° C | 62% | 1009.9 hPa | - | - | - | - |
| 1787550508 | 16.11° C | 62% | 1009.6 hPa | - | - | - | - |
| 1787549608 | 16.11° C | 61% | 1009.5 hPa | - | - | - | - |
| 1787548708 | 16.11° C | 61% | 1009.4 hPa | - | - | - | - |
* Rain since midnight (hover to see other rain measurements)
** Current wind speed in m/s (hover to see current wind gust speed)